User: anonymous   Login
Location: Monroe
(41.9160°N, 83.3980°W)
Time: 20:50:14
(UTC-04:00)
Language:

ISS - Orbit

View from above orbital plane
View from above orbital plane
View from above satellite
View from above satellite

Ground track
Ground track

The orbit data is extracted from the following two-line orbital elements,

1 25544U 98067A   17086.56017484  .00016717  00000-0  10270-3 0  9037
2 25544  51.6380  85.1867 0007591 344.0161  16.0751 15.54294618  9050
Epoch (UTC): 27 March 2017 13:26:39
Eccentricity: 0.0007591
inclination: 51.6380°
perigee height: 399 km
apogee height: 409 km
right ascension of ascending node: 85.1867°
argument of perigee: 344.0161°
revolutions per day: 15.54294618
mean anomaly at epoch: 16.0751°
orbit number at epoch: 905

The dashed part of the orbit path shows where the satellite is in the earth's shadow,  

DLR